Weather History for KIKV - December, 2013

Change the Weather History Date:

Saturday, December 14, 2013

  Actual Average (KDSM) Record (KDSM)
Temperature  
Mean Temperature 18 °F 26 °F  
Max Temperature 24 °F 34 °F 60 °F (1975)
Min Temperature 12 °F 18 °F -17 °F (1901)
Degree Days  
Heating Degree Days 47 39  
Month to date heating degree days 514  
Since 1 July heating degree days 1772  
Cooling Degree Days 0 0  
Month to date cooling degree days 0  
Year to date cooling degree days 1066  
Moisture  
Dew Point 15 °F    
Average Humidity 81    
Maximum Humidity 93    
Minimum Humidity 68    
Precipitation  
Precipitation 0.00 in 0.05 in 0.61 in (1992)
Month to date precipitation 0.73  
Year to date precipitation 35.33  
Snow  
Snow 0.00 in 0.30 in 5.10 in (1951)
Month to date snowfall 4.1  
Since 1 July snowfall 7.0  
Snow Depth -    
Sea Level Pressure  
Sea Level Pressure 30.12 in    
Wind  
Wind Speed 12 mph (NNW)    
Max Wind Speed 17 mph    
Max Gust Speed 23 mph    
Visibility 8 miles    
Events Rain , Snow    
T = Trace of Precipitation, MM = Missing Value Source: NWS Daily Summary

Daily Weather History Graph

Daily Weather History Graph

Search for Another Location

Airport or City:

Trip Planner

Search our weather history database for the weather conditions in past years. The results will help you decide how hot, cold, wet, or windy it might be!

Date:

Astronomy

Dec. 14, 2013 Rise Set
Actual Time 7:33 AM CST 4:44 PM CST
Civil Twilight 7:02 AM CST 5:15 PM CST
Nautical Twilight 6:27 AM CST 5:50 PM CST
Astronomical Twilight 5:53 AM CST 6:24 PM CST
Moon 3:08 PM CST (12/14) 4:53 AM CST (12/14)
Length of Visible Light 10h 13m
Length of Day
9h 10m
Waxing Gibbous, 94% of the Moon is Illuminated
Dec 14
Waxing Gibbous
Dec 17
Full
Dec 25
Last Quarter
Jan 1
New
Jan 7
First Quarter

Hourly Weather History & Observations

Time (CST) Temp. Windchill Dew Point Humidity Pressure Visibility Wind Dir Wind Speed Gust Speed Precip Events Conditions
12:15 AM 24.8 °F 14.6 °F 19.4 °F 80% 30.06 in 10.0 mi NE 10.4 mph - N/A   Overcast
12:35 AM 24.8 °F 13.4 °F 19.4 °F 80% 30.06 in 10.0 mi NE 12.7 mph 18.4 mph N/A   Overcast
12:55 AM 23.0 °F 12.4 °F 19.4 °F 86% 30.05 in 10.0 mi NNE 10.4 mph 16.1 mph N/A   Overcast
1:15 AM 23.0 °F 11.7 °F 19.4 °F 86% 30.05 in 10.0 mi NE 11.5 mph - N/A   Overcast
1:35 AM 23.0 °F 11.1 °F 19.4 °F 86% 30.05 in 10.0 mi NNE 12.7 mph - N/A   Overcast
1:55 AM 23.0 °F 10.6 °F 19.4 °F 86% 30.06 in 8.0 mi NNE 13.8 mph - N/A   Overcast
2:15 AM 23.0 °F 10.1 °F 19.4 °F 86% 30.07 in 8.0 mi NNE 15.0 mph 20.7 mph N/A   Overcast
2:35 AM 23.0 °F 11.7 °F 19.4 °F 86% 30.07 in 7.0 mi NNE 11.5 mph 18.4 mph N/A   Overcast
2:55 AM 23.0 °F 11.1 °F 19.4 °F 86% 30.07 in 7.0 mi NNE 12.7 mph 19.6 mph N/A   Overcast
3:15 AM 23.0 °F 11.1 °F 19.4 °F 86% 30.08 in 7.0 mi NNE 12.7 mph 21.9 mph N/A   Overcast
3:35 AM 23.0 °F 10.1 °F 19.4 °F 86% 30.08 in 6.0 mi NNE 15.0 mph 20.7 mph N/A   Overcast
3:55 AM 21.2 °F 6.8 °F 19.4 °F 93% 30.07 in 5.0 mi North 17.3 mph - N/A   Overcast
4:15 AM 21.2 °F 8.3 °F 19.4 °F 93% 30.07 in 5.0 mi North 13.8 mph - N/A   Overcast
4:35 AM 21.2 °F 7.3 °F 19.4 °F 93% 30.07 in 5.0 mi NNE 16.1 mph - N/A   Overcast
4:55 AM 21.2 °F 7.8 °F 19.4 °F 93% 30.07 in 5.0 mi NNE 15.0 mph - N/A   Overcast
5:15 AM 21.2 °F 8.9 °F 17.6 °F 86% 30.07 in 5.0 mi NNE 12.7 mph - N/A   Overcast
5:35 AM 21.2 °F 8.3 °F 17.6 °F 86% 30.08 in 6.0 mi NNE 13.8 mph 19.6 mph N/A   Overcast
5:55 AM 21.2 °F 8.3 °F 17.6 °F 86% 30.09 in 6.0 mi North 13.8 mph - N/A   Overcast
6:15 AM 21.2 °F 8.9 °F 17.6 °F 86% 30.10 in 6.0 mi North 12.7 mph - N/A   Overcast
6:35 AM 21.2 °F 8.3 °F 17.6 °F 86% 30.11 in 6.0 mi North 13.8 mph - N/A   Overcast
6:55 AM 21.2 °F 9.5 °F 17.6 °F 86% 30.11 in 6.0 mi North 11.5 mph - N/A   Overcast
7:15 AM 19.4 °F 5.5 °F 17.6 °F 93% 30.12 in 5.0 mi North 15.0 mph - N/A   Overcast
7:35 AM 19.4 °F 6.6 °F 17.6 °F 93% 30.13 in 5.0 mi North 12.7 mph - N/A   Overcast
7:55 AM 19.4 °F 6.6 °F 17.6 °F 93% 30.13 in 3.0 mi North 12.7 mph - N/A   Overcast
8:15 AM 19.4 °F 8.6 °F 17.6 °F 93% 30.13 in 2.5 mi North 9.2 mph 16.1 mph N/A   Overcast
8:35 AM 19.4 °F 6.6 °F 17.6 °F 93% 30.13 in 3.0 mi North 12.7 mph - N/A   Overcast
8:55 AM 19.4 °F 6.0 °F 17.6 °F 93% 30.14 in 3.0 mi North 13.8 mph - N/A   Overcast
9:15 AM 19.4 °F 7.2 °F 17.6 °F 93% 30.14 in 3.0 mi North 11.5 mph 23.0 mph N/A Snow Light Snow
9:35 AM 19.4 °F 7.9 °F 17.6 °F 93% 30.14 in 4.0 mi North 10.4 mph - N/A Rain Light Freezing Rain
9:55 AM 19.4 °F 6.6 °F 15.8 °F 86% 30.16 in 5.0 mi NNW 12.7 mph - N/A   Light Freezing Rain
10:15 AM 19.4 °F 7.2 °F 15.8 °F 86% 30.16 in 5.0 mi NNW 11.5 mph 17.3 mph N/A Rain Light Freezing Rain
10:35 AM 21.2 °F 9.5 °F 15.8 °F 80% 30.15 in 4.0 mi NNW 11.5 mph 17.3 mph N/A Snow Light Snow
10:55 AM 21.2 °F 8.3 °F 15.8 °F 80% 30.15 in 7.0 mi NNW 13.8 mph - N/A   Overcast
11:15 AM 21.2 °F 8.3 °F 15.8 °F 80% 30.14 in 7.0 mi North 13.8 mph - N/A   Overcast
11:35 AM 21.2 °F 9.5 °F 15.8 °F 80% 30.14 in 7.0 mi North 11.5 mph 19.6 mph N/A   Overcast
11:55 AM 21.2 °F 8.9 °F 15.8 °F 80% 30.13 in 7.0 mi North 12.7 mph - N/A   Overcast
12:15 PM 21.2 °F 7.8 °F 15.8 °F 80% 30.12 in 8.0 mi NW 15.0 mph - N/A   Overcast
12:35 PM 21.2 °F 8.9 °F 15.8 °F 80% 30.13 in 7.0 mi NNW 12.7 mph 18.4 mph N/A   Overcast
12:55 PM 21.2 °F 7.8 °F 15.8 °F 80% 30.12 in 9.0 mi NNW 15.0 mph - N/A   Overcast
1:15 PM 21.2 °F 8.9 °F 15.8 °F 80% 30.12 in 9.0 mi NNW 12.7 mph 18.4 mph N/A   Overcast
1:35 PM 23.0 °F 11.1 °F 15.8 °F 74% 30.11 in 10.0 mi NW 12.7 mph - N/A   Overcast
1:55 PM 23.0 °F 11.7 °F 15.8 °F 74% 30.11 in 10.0 mi North 11.5 mph - N/A   Partly Cloudy
2:15 PM 23.0 °F 11.1 °F 15.8 °F 74% 30.12 in 10.0 mi NNW 12.7 mph - N/A   Partly Cloudy
2:35 PM 23.0 °F 10.6 °F 14.0 °F 68% 30.12 in 10.0 mi NNW 13.8 mph - N/A   Mostly Cloudy
2:55 PM 21.2 °F 10.1 °F 14.0 °F 74% 30.12 in 10.0 mi NNW 10.4 mph - N/A   Overcast
3:15 PM 21.2 °F 8.9 °F 14.0 °F 74% 30.13 in 10.0 mi NW 12.7 mph - N/A   Overcast
3:35 PM 21.2 °F 9.5 °F 12.2 °F 68% 30.13 in 10.0 mi NW 11.5 mph - N/A   Overcast
3:55 PM 19.4 °F 7.2 °F 12.2 °F 74% 30.13 in 10.0 mi WNW 11.5 mph - N/A   Scattered Clouds
4:15 PM 19.4 °F 6.6 °F 12.2 °F 74% 30.14 in 10.0 mi WNW 12.7 mph - N/A   Mostly Cloudy
4:35 PM 17.6 °F 3.7 °F 12.2 °F 79% 30.15 in 10.0 mi NW 13.8 mph - N/A   Mostly Cloudy
4:55 PM 17.6 °F 3.7 °F 10.4 °F 73% 30.15 in 10.0 mi NW 13.8 mph - N/A   Scattered Clouds
5:15 PM 17.6 °F 5.7 °F 10.4 °F 73% 30.15 in 10.0 mi NW 10.4 mph 17.3 mph N/A   Mostly Cloudy
5:35 PM 17.6 °F 5.0 °F 10.4 °F 73% 30.15 in 10.0 mi NW 11.5 mph - N/A   Scattered Clouds
5:55 PM 17.6 °F 7.3 °F 10.4 °F 73% 30.15 in 10.0 mi NW 8.1 mph - N/A   Mostly Cloudy
6:15 PM 15.8 °F - 10.4 °F 79% 30.15 in 10.0 mi North - - N/A   Partly Cloudy
6:35 PM 15.8 °F 2.7 °F 10.4 °F 79% 30.15 in 10.0 mi NW 11.5 mph - N/A   Clear
6:55 PM 15.8 °F 3.4 °F 10.4 °F 79% 30.16 in 10.0 mi NW 10.4 mph - N/A   Clear
7:15 PM 15.8 °F 6.1 °F 8.6 °F 73% 30.15 in 10.0 mi WNW 6.9 mph - N/A   Clear
7:35 PM 15.8 °F 5.1 °F 10.4 °F 79% 30.15 in 10.0 mi WNW 8.1 mph - N/A   Mostly Cloudy
7:55 PM 15.8 °F 5.1 °F 10.4 °F 79% 30.16 in 10.0 mi WNW 8.1 mph - N/A   Overcast
8:15 PM 15.8 °F 2.1 °F 10.4 °F 79% 30.16 in 10.0 mi WNW 12.7 mph - N/A   Overcast
8:35 PM 15.8 °F 6.1 °F 10.4 °F 79% 30.16 in 10.0 mi WNW 6.9 mph 13.8 mph N/A Snow Light Snow
8:55 PM 17.6 °F 5.7 °F 10.4 °F 73% 30.16 in 10.0 mi WNW 10.4 mph - N/A   Overcast
9:15 PM 17.6 °F 5.7 °F 10.4 °F 73% 30.15 in 10.0 mi WNW 10.4 mph - N/A Snow Light Snow
9:35 PM 17.6 °F 2.7 °F 10.4 °F 73% 30.15 in 9.0 mi WNW 16.1 mph 21.9 mph N/A Snow Light Snow
9:55 PM 15.8 °F 1.4 °F 10.4 °F 79% 30.16 in 10.0 mi NW 13.8 mph 19.6 mph N/A   Overcast
10:15 PM 15.8 °F 4.2 °F 8.6 °F 73% 30.15 in 10.0 mi WNW 9.2 mph 18.4 mph N/A   Overcast
10:35 PM 14.0 °F -1.4 °F 8.6 °F 79% 30.16 in 10.0 mi NW 15.0 mph - N/A   Mostly Cloudy
10:55 PM 14.0 °F 2.9 °F 6.8 °F 73% 30.15 in 10.0 mi NW 8.1 mph 16.1 mph N/A   Partly Cloudy
11:15 PM 14.0 °F 2.0 °F 6.8 °F 73% 30.15 in 10.0 mi NW 9.2 mph 18.4 mph N/A   Scattered Clouds
11:35 PM 12.2 °F -2.5 °F 6.8 °F 79% 30.16 in 10.0 mi NW 12.7 mph - N/A   Partly Cloudy
11:55 PM 12.2 °F -1.8 °F 6.8 °F 79% 30.15 in 10.0 mi NW 11.5 mph - N/A   Scattered Clouds